sat.trackr.live / text

‹ back to catalog

STARLINK-31900

NORAD 59942 · 2024-106W

PAYLOAD ACTIVE UNKNOWN

§ Identity

Operator
Country
US
Launch date
2024-06-01
Launch site
AFETR
Launch vehicle
Mass (kg)
RCS (m²)

Purposes: comms

External: N2YO · Heavens-Above · Gunter

§ Orbital elements

Epoch: 2026-05-25T01:00:29.162016Z

Period
94.27 min
Inclination
43.0045°
Eccentricity
0.0002829
Mean motion
15.27581746 rev/d
Perigee alt
481.1 km
Apogee alt
485.0 km
Semi-major
6,861.2 km
B*
-3.2201e-5
RAAN
261.0103°
Arg perigee
270.0967°
Mean anomaly
89.9560°
Rev number
11,220

§ Raw data

STARLINK-319001 59942U 24106W   26145.04200419 -.00001149  00000+0 -32201-4 0  99982 59942  43.0045 261.0103 0002829 270.0967  89.9560 15.27581746112201

JSON: /api/v1/satellites/59942 · /tle

For live sub-satellite position, see the globe view (requires WebGL).

§ Visibility from observer

Set your observer location to see the next 7 days of passes ≥ 10°. The values pass through the URL so the page stays shareable.

No JS? Fill the form by hand. The geolocation button needs JavaScript.